This is the latest recevied weather packets stored in our database for station/object KI8L. If no packets are shown the sender has not sent any weather packets the latest 10 day(s).
| Time | Temp. | Humidity | Pressure | Rain* | Wind** | Luminosity | Snow |
|---|---|---|---|---|---|---|---|
| 1777728483 | 2.78° C | 94% | 1019 hPa | 0 mm | - | 76 W/m² | - |
| 1777728180 | 3.33° C | 95% | 1019.1 hPa | 0 mm | - | 87 W/m² | - |
| 1777727877 | 3.33° C | 95% | 1019 hPa | 0 mm | - | 100 W/m² | - |
| 1777727574 | 3.33° C | 95% | 1018.8 hPa | 0 mm | - | 112 W/m² | - |
| 1777727271 | 3.33° C | 95% | 1018.6 hPa | 0 mm | - | 106 W/m² | - |
| 1777726665 | 3.33° C | 96% | 1018.5 hPa | 0 mm | - | 113 W/m² | - |
| 1777725455 | 2.78° C | 96% | 1018.7 hPa | 0 mm | - | 88 W/m² | - |
| 1777725151 | 2.78° C | 95% | 1018.7 hPa | 0 mm | - | 71 W/m² | - |
| 1777724848 | 3.33° C | 95% | 1018.5 hPa | 0 mm | - | 89 W/m² | - |
| 1777724544 | 3.33° C | 94% | 1018.6 hPa | 0 mm | - | 106 W/m² | - |
| 1777723636 | 3.33° C | 95% | 1018.4 hPa | 0 mm | - | 52 W/m² | - |
| 1777723333 | 3.33° C | 95% | 1018.5 hPa | 0 mm | - | 61 W/m² | - |
| 1777723031 | 3.33° C | 96% | 1018.5 hPa | 0 mm | - | 60 W/m² | - |
| 1777722121 | 2.78° C | 96% | 1018.5 hPa | 0 mm | - | 30 W/m² | - |
| 1777721818 | 2.78° C | 96% | 1018.2 hPa | 0 mm | - | 40 W/m² | - |
| 1777721515 | 2.78° C | 96% | 1018.3 hPa | 0 mm | - | 26 W/m² | - |
| 1777721213 | 2.78° C | 96% | 1018.3 hPa | 0 mm | - | 25 W/m² | - |
| 1777720911 | 2.78° C | 96% | 1018.4 hPa | 0 mm | - | 23 W/m² | - |
| 1777720608 | 2.78° C | 96% | 1018.3 hPa | 0 mm | - | 21 W/m² | - |
| 1777720305 | 2.78° C | 96% | 1018.3 hPa | 0 mm | - | 20 W/m² | - |
| 1777720003 | 2.78° C | 96% | 1018.3 hPa | 0 mm | - | 18 W/m² | - |
| 1777719700 | 2.78° C | 96% | 1018.3 hPa | 0 mm | - | 16 W/m² | - |
| 1777719397 | 2.78° C | 96% | 1018.2 hPa | 0 mm | - | 14 W/m² | - |
| 1777719095 | 2.78° C | 96% | 1018.4 hPa | 0 mm | - | 11 W/m² | - |
| 1777718792 | 2.78° C | 97% | 1018.3 hPa | 0 mm | - | 7 W/m² | - |
* Rain latest hour (hover to see other rain measurements)
** Current wind speed in m/s (hover to see current wind gust speed)